TimeCST,TemperatureF,Dew PointF,Humidity,Sea Level PressureIn,VisibilityMPH,Wind Direction,Wind SpeedMPH,Gust SpeedMPH,PrecipitationIn,Events,Conditions,WindDirDegrees,DateUTC
12:54 AM,42.1,30.9,65,29.84,10.0,SW,9.2,-,N/A,,Clear,220,2013-02-14 06:54:00
1:54 AM,41.0,30.0,65,29.84,10.0,WSW,11.5,-,N/A,,Clear,240,2013-02-14 07:54:00
2:54 AM,41.0,30.0,65,29.83,10.0,WSW,11.5,-,N/A,,Mostly Cloudy,240,2013-02-14 08:54:00
3:54 AM,41.0,30.0,65,29.82,10.0,WSW,11.5,-,N/A,,Partly Cloudy,240,2013-02-14 09:54:00
4:54 AM,39.9,30.0,68,29.83,10.0,WSW,11.5,-,N/A,,Clear,240,2013-02-14 10:54:00
5:54 AM,39.9,30.0,68,29.84,10.0,WSW,10.4,-,N/A,,Clear,240,2013-02-14 11:54:00
6:54 AM,39.0,28.9,67,29.86,10.0,WSW,10.4,-,N/A,,Partly Cloudy,250,2013-02-14 12:54:00
7:54 AM,41.0,30.0,65,29.90,10.0,WSW,10.4,-,N/A,,Mostly Cloudy,250,2013-02-14 13:54:00
8:54 AM,42.1,30.0,62,29.92,10.0,West,9.2,-,N/A,,Mostly Cloudy,260,2013-02-14 14:54:00
9:54 AM,48.0,32.0,54,29.92,10.0,WSW,9.2,-,N/A,,Partly Cloudy,240,2013-02-14 15:54:00
10:54 AM,52.0,32.0,47,29.94,10.0,NW,16.1,19.6,N/A,,Partly Cloudy,310,2013-02-14 16:54:00
11:54 AM,54.0,32.0,43,29.94,10.0,WNW,13.8,21.9,N/A,,Scattered Clouds,300,2013-02-14 17:54:00
12:54 PM,54.0,32.0,43,29.92,10.0,WSW,12.7,-,N/A,,Mostly Cloudy,240,2013-02-14 18:54:00
1:54 PM,57.0,30.9,37,29.91,10.0,WSW,13.8,20.7,N/A,,Partly Cloudy,250,2013-02-14 19:54:00
2:54 PM,57.0,28.0,33,29.93,10.0,West,10.4,19.6,N/A,,Clear,260,2013-02-14 20:54:00
3:54 PM,53.1,28.9,40,29.95,10.0,NW,11.5,-,N/A,,Scattered Clouds,310,2013-02-14 21:54:00
4:54 PM,52.0,30.0,43,29.97,10.0,NW,13.8,-,N/A,,Scattered Clouds,320,2013-02-14 22:54:00
5:54 PM,46.9,30.9,54,30.01,10.0,NW,8.1,-,N/A,,Mostly Cloudy,310,2013-02-14 23:54:00
6:54 PM,46.9,30.0,52,30.04,10.0,NW,12.7,-,N/A,,Clear,310,2013-02-15 00:54:00
7:54 PM,45.0,28.9,53,30.06,10.0,WNW,6.9,-,N/A,,Clear,300,2013-02-15 01:54:00
8:54 PM,41.0,30.0,65,30.06,10.0,WSW,4.6,-,N/A,,Partly Cloudy,250,2013-02-15 02:54:00
9:54 PM,37.9,30.0,73,30.06,10.0,Calm,Calm,-,N/A,,Mostly Cloudy,0,2013-02-15 03:54:00
10:54 PM,42.1,28.9,60,30.07,10.0,NW,8.1,-,N/A,,Scattered Clouds,320,2013-02-15 04:54:00
11:54 PM,41.0,28.9,62,30.08,10.0,WNW,4.6,-,N/A,,Overcast,290,2013-02-15 05:54:00